Tracking 30415 objects as of 15-May-2025
HD Live streaming from Space Station
objects crossing your sky now

SCOUT B-1 R/B

Track SCOUT B-1 R/B now!
10-day predictions


NORAD ID: 6180
Int'l Code: 1972-069B
Perigee: 630.6 km
Apogee: 683.4 km
Inclination: 90.0 °
Period: 97.7 minutes
Semi major axis: 7027 km
RCS: 0.7995 m2 (medium)
Launch date: September 2, 1972
Source: United States (US)
Launch site: AIR FORCE WESTERN TEST RANGE (AFWTR)

Note: This is a ROCKET BODY
Your satellite tracking list
Your tracking list is empty




NASA's NSSDC Master Catalog

Two Line Element Set (TLE):
1 06180U 72069B   25134.73453959  .00002331  00000-0  35260-3 0  9997
2 06180  90.0490 217.5904 0037542 119.8660 240.6300 14.73516976768981
Source of the keplerian elements: AFSPC